Weather History for Burnet, TX

Change the Weather History Date:

Friday, November 5, 2010

  Actual Average Record
Temperature  
Mean Temperature 50 °F -  
Max Temperature 64 °F 67 °F 86 °F (2005)
Min Temperature 37 °F 48 °F 37 °F (2010)
Degree Days  
Heating Degree Days 14    
Moisture  
Dew Point 25 °F    
Average Humidity 39    
Maximum Humidity 60    
Minimum Humidity 21    
Precipitation  
Precipitation 0.00 in - - ()
Sea Level Pressure  
Sea Level Pressure 30.28 in    
Wind  
Wind Speed 5 mph (North)    
Max Wind Speed 10 mph    
Max Gust Speed -    
Visibility 10 miles    
Events      
Averages and records for this station are not official NWS values.
T = Trace of Precipitation, MM = Missing Value Source: NWS Daily Summary

Daily Weather History Graph

Daily Weather History Graph

Search for Another Location

Airport:

Trip Planner

Search our weather history database for the weather conditions in past years. The results will help you decide how hot, cold, wet, or windy it might be!

Date:

Astronomy

Nov. 05, 2010 Rise Set
Actual Time 7:51 AM CDT 6:41 PM CDT
Civil Twilight 7:25 AM CDT 7:06 PM CDT
Nautical Twilight 6:57 AM CDT 7:35 PM CDT
Astronomical Twilight 6:28 AM CDT 8:03 PM CDT
Moon 7:14 AM CDT (11/5) 6:10 PM CDT (11/5)
Length of Visible Light 11h 40m
Length of Day
10h 50m
Waning Crescent, 0% of the Moon is Illuminated
Nov 5
Waning Crescent
Nov 5
New
Nov 13
First Quarter
Nov 21
Full
Nov 28
Last Quarter

Hourly Weather History & Observations

Time (CDT) Temp. Windchill Dew Point Humidity Pressure Visibility Wind Dir Wind Speed Gust Speed Precip Events Conditions
12:53 AM 50.0 °F - 19.9 °F 31% 30.25 in 10.0 mi NNW 6.9 mph - N/A   Clear
1:53 AM 48.9 °F - 19.9 °F 32% 30.24 in 10.0 mi NNW 8.1 mph - N/A   Clear
2:53 AM 42.1 °F - 25.0 °F 51% 30.25 in 10.0 mi Calm Calm - N/A   Clear
3:53 AM 39.9 °F - 25.0 °F 55% 30.24 in 10.0 mi Calm Calm - N/A   Clear
4:53 AM 39.0 °F - 26.1 °F 60% 30.25 in 10.0 mi Calm Calm - N/A   Clear
5:53 AM 39.9 °F 36.7 °F 24.1 °F 53% 30.26 in 10.0 mi WNW 4.6 mph - N/A   Clear
6:53 AM 37.9 °F - 24.1 °F 57% 30.28 in 10.0 mi Calm Calm - N/A   Clear
7:53 AM 37.9 °F - 24.1 °F 57% 30.31 in 10.0 mi Calm Calm - N/A   Clear
8:53 AM 42.1 °F 39.2 °F 24.1 °F 49% 30.34 in 10.0 mi WNW 4.6 mph - N/A   Clear
9:53 AM 51.1 °F - 24.1 °F 35% 30.35 in 10.0 mi NNE 8.1 mph - N/A   Clear
10:53 AM 55.0 °F - 24.1 °F 30% 30.35 in 10.0 mi NNE 8.1 mph - N/A   Clear
11:53 AM 57.0 °F - 24.1 °F 28% 30.35 in 10.0 mi NE 8.1 mph - N/A   Clear
12:53 PM 59.0 °F - 25.0 °F 27% 30.33 in 10.0 mi Variable 5.8 mph - N/A   Clear
1:53 PM 61.0 °F - 23.0 °F 23% 30.29 in 10.0 mi NNE 10.4 mph - N/A   Clear
2:53 PM 63.0 °F - 23.0 °F 22% 30.27 in 10.0 mi Variable 5.8 mph 16.1 mph N/A   Clear
3:53 PM 63.0 °F - 23.0 °F 22% 30.24 in 10.0 mi NNE 5.8 mph - N/A   Clear
4:53 PM 64.9 °F - 24.1 °F 21% 30.24 in 10.0 mi North 8.1 mph - N/A   Clear
5:53 PM 62.1 °F - 24.1 °F 23% 30.23 in 10.0 mi NE 4.6 mph - N/A   Clear
6:53 PM 57.0 °F - 28.0 °F 33% 30.24 in 10.0 mi Calm Calm - N/A   Clear
7:53 PM 51.1 °F - 30.9 °F 46% 30.26 in 10.0 mi Calm Calm - N/A   Clear
8:53 PM 48.0 °F - 33.1 °F 56% 30.27 in 10.0 mi Calm Calm - N/A   Clear
9:53 PM 46.9 °F - 30.9 °F 54% 30.28 in 10.0 mi NNE 4.6 mph - N/A   Clear
10:53 PM 48.9 °F - 28.0 °F 44% 30.29 in 10.0 mi Calm Calm - N/A   Clear
11:53 PM 46.9 °F - 28.9 °F 50% 30.30 in 10.0 mi Calm Calm - N/A   Clear